Home > Time Zones > World Clock > Weather > Iran > Gorgan > Past weeks

Flag for Iran Weather past 2 weeks in Gorgan, Iran

Now
63 °F

Sunny.


Feels Like: 63 °F
Forecast: 49 / 73 °F
Wind: 9 mph from Northeast

Location: Gorgan Airport

Current Time: Mar 28, 2015 at 10:19:22 AM

Latest Report: Mar 28, 2015 at 10:00 AM


Visibility: 10 mi

Pressure: 30.12 "Hg

Humidity: 68%

Dew point: 52 °F

Location of GorganLocation

Historic Weather in Gorgan — Graph

°F

Gorgan temperature yesterday

Maximum temperature yesterday: 68 °F (at 4:30 PM)
Minimum temperature yesterday: 45 °F (at 11:30 PM)
Average temperature yesterday: 55 °F

Past Weeks' High & Low Weather Summary

 TemperatureHumidityPressure
High72 °F (Mar 24, 6:00 PM)100% (Mar 14, 9:30 PM)30.42 "Hg (Mar 14, 9:30 PM)
Low36 °F (Mar 14, 6:30 AM)35% (Mar 24, 4:30 PM)29.80 "Hg (Mar 22, 7:00 PM)
Average53 °F85%30.19 "Hg
* Reported Mar 13 7:30 AM — Mar 28 8:30 AM, Gorgan, Weather by CustomWeather, © 2015

Note: Actual official high and low records may vary slightly from our data, if they occured in-between our weather recording intervals... More about our weather records

Advertising

Gorgan weather history for previous 24 hours

 ConditionsComfort  
Time TempWeatherWind HumidityBarometerVisibility
8:30 AM
Sat, Mar 28
50 °FSunny.No wind100%30.12 "Hg10 mi
7:30 AM36 °FPassing clouds.No wind100%30.12 "HgN/A
6:30 AM37 °FClear.5 mph100%30.12 "Hg10 mi
5:30 AM37 °FClear.5 mph93%30.12 "Hg10 mi
4:30 AM39 °FClear.7 mph93%30.12 "Hg10 mi
3:30 AM39 °FClear.No wind100%30.15 "Hg10 mi
2:30 AM39 °FClear.No wind100%30.15 "Hg10 mi
1:30 AM41 °FClear.5 mph100%30.15 "Hg10 mi
12:30 AM43 °FClear.7 mph93%30.18 "Hg10 mi
11:30 PM
Fri, Mar 27
45 °FClear.5 mph93%30.18 "Hg10 mi
10:30 PM48 °FClear.7 mph94%30.18 "Hg10 mi
9:30 PM50 °FClear.12 mph94%30.21 "Hg10 mi
8:30 PM52 °FSunny.12 mph88%30.21 "Hg10 mi
7:30 PM59 °FSunny.9 mph72%30.24 "Hg10 mi
6:30 PM64 °FPassing clouds.9 mph78%30.24 "HgN/A
5:30 PM66 °FPassing clouds.9 mph56%30.24 "HgN/A
4:30 PM68 °FPassing clouds.12 mph53%30.24 "HgN/A
3:30 PM66 °FPassing clouds.14 mph52%30.27 "HgN/A
2:30 PM66 °FPassing clouds.14 mph56%30.30 "HgN/A
1:30 PM64 °FPassing clouds.9 mph56%30.33 "HgN/A
12:30 PM63 °FPassing clouds.9 mph59%30.33 "Hg5 mi
11:30 AM59 °FPassing clouds.7 mph72%30.36 "Hg5 mi
10:30 AM55 °FPartly sunny.9 mph82%30.36 "Hg4 mi
Weather by CustomWeather, © 2015

See weather overviewHow to use our weather pages